Wind_Speed
34 35 34 29 26 23 10 20 20 22 19 15 14 10 12 12 24 23 18 19 17 14 11 8 10 6 7 7 8 10 10 10 10 11 10 6 7 9 8 8 10 8 4 10
39 39 35 30 25 24 24 23 24 25 26 25 18 13 11 7 19 14 15 19 17 13 12 9 8 9 7 8 7 7 10 10 10 10 11 9 7 7 7 8 10 10 9 9
36 32 33 31 29 28 28 20 25 18 20 24 26 16 9 12 15 13 16 16 17 16 10 9 10 10 10 8 10 7 8 10 9 10 11 10 7 7 7 7 9 10 10 12
31 34 33 30 30 25 32 26 22 29 25 23 20 14 11 13 19 17 11 23 20 15 15 16 12 10 11 11 7 10 9 9 9 8 10 11 10 7 7 7 9 10 10 9
29 33 34 32 35 22 15 21 28 17 28 24 19 16 9 11 5 16 16 19 26 17 14 16 16 14 12 13 10 8 9 9 8 7 9 9 10 9 9 7 8 9 10 8
28 29 33 20 25 23 12 11 12 16 14 17 25 1 11 5 5 6 8 10 22 19 18 18 21 16 13 11 11 9 9 9 8 8 8 9 9 9 9 8 6 8 8 9
31 30 20 23 31 26 25 15 7 3 4 7 1 17 5 10 10 10 11 7 3 6 11 13 25 15 16 15 12 11 10 10 10 10 9 8 8 7 7 8 7 7 6 8
27 26 24 37 38 24 24 18 11 6 8 10 11 9 3 17 13 8 4 6 2 4 3 16 11 20 22 15 14 14 12 12 11 12 10 9 8 8 8 7 6 6 7 5
20 18 7 17 24 32 25 24 21 15 14 8 14 7 16 13 12 17 18 14 12 7 2 7 8 9 13 16 17 17 15 15 14 13 13 11 10 9 8 8 8 8 6 7
19 25 18 13 13 33 34 17 22 21 21 4 18 21 15 25 11 21 24 24 22 16 11 9 7 9 16 19 24 21 20 17 16 14 14 14 12 11 11 10 10 8 9 7
27 23 20 15 15 23 31 32 25 29 15 12 16 14 18 15 18 26 27 29 25 20 18 15 13 11 13 12 20 25 21 22 19 18 17 15 15 13 12 12 12 11 11 11
23 27 25 18 9 10 24 31 27 26 25 19 14 15 23 20 22 18 22 20 19 18 20 19 19 16 13 12 20 25 27 24 24 21 20 19 17 16 14 13 13 12 12 13
22 16 23 21 21 14 13 22 22 21 28 26 18 18 25 23 18 10 10 5 7 11 16 18 21 21 17 16 20 21 27 31 22 24 24 22 21 20 19 17 16 15 14 14
25 15 16 19 25 25 22 31 29 19 19 25 22 19 24 23 17 12 11 11 15 15 18 19 20 22 23 21 23 17 20 39 32 28 24 21 21 20 19 19 19 18 16 15
28 37 34 30 24 24 28 25 29 25 18 15 21 27 29 27 22 9 12 17 20 26 23 22 21 20 20 16 22 23 20 14 23 29 26 25 26 25 23 22 21 21 20 18
20 26 42 38 34 24 29 23 27 32 25 21 31 34 37 36 31 34 24 21 24 28 18 23 21 19 16 18 17 24 15 20 25 21 16 26 33 28 23 23 24 24 25 24
20 29 37 35 19 12 17 30 28 32 25 26 32 37 40 37 38 40 31 37 7 13 14 17 18 19 20 19 18 15 18 21 24 23 27 31 23 21 22 24 27 29 28 28
21 25 32 37 29 18 17 14 18 25 25 32 38 47 46 37 39 38 39 40 31 27 12 18 18 20 23 21 20 25 19 19 22 24 22 21 21 23 24 24 27 29 31 32
17 18 22 33 37 25 20 23 24 27 29 39 44 51 52 46 35 35 33 36 32 33 20 25 24 26 24 25 23 25 25 24 25 25 25 25 24 24 24 25 27 26 30 34
15 21 19 18 27 35 39 30 29 25 30 32 31 36 38 49 55 50 45 33 29 30 34 36 30 30 26 26 27 28 28 28 27 27 27 29 27 24 25 24 24 25 23 29
15 15 17 20 25 31 39 39 34 34 38 38 42 39 39 43 46 46 44 41 40 29 35 30 32 32 35 35 33 32 34 34 34 31 28 28 28 28 28 26 25 25 26 32
17 22 24 24 24 34 34 39 34 30 32 36 39 37 37 39 39 43 48 48 45 51 34 30 31 36 37 38 39 37 35 39 37 36 35 34 33 33 33 33 31 26 26 31
14 16 20 29 32 34 37 39 39 36 34 30 27 39 31 34 31 31 34 36 38 51 31 34 39 44 42 41 44 44 45 42 42 41 40 39 38 36 38 38 37 37 34 32
21 22 25 27 34 38 43 36 35 40 38 33 39 30 38 29 31 29 27 27 27 31 35 37 39 45 44 46 47 46 47 47 48 50 48 46 43 42 43 42 42 38 40 39
19 20 24 26 26 28 37 41 41 27 40 43 46 35 28 27 27 31 32 27 25 29 32 35 40 45 46 45 46 48 47 46 46 48 49 48 47 47 47 48 49 49 44 41
20 23 23 16 17 21 22 32 41 25 8 14 27 31 35 32 27 27 30 34 33 29 31 35 35 38 44 47 46 50 46 45 47 46 46 45 47 45 44 44 43 44 45 43
Wind_Direction
210 199 200 201 203 228 186 223 210 235 237 242 242 246 270 260 217 228 219 216 219 203 198 167 174 155 170 134 157 145 123 114 96 99 95 106 148 161 147 139 126 130 125 118
208 200 194 198 202 203 214 214 221 241 235 239 228 233 247 244 198 204 213 215 227 209 196 190 177 164 166 158 152 152 127 127 121 112 110 106 113 136 141 142 132 137 159 148
212 197 193 196 201 198 214 223 240 250 261 266 228 220 224 219 202 212 233 236 220 210 216 202 182 176 156 155 158 153 142 135 126 119 116 116 120 124 136 141 140 150 159 161
204 197 188 203 210 191 216 226 238 236 268 258 245 191 216 233 214 220 222 227 221 212 210 210 179 186 160 155 155 154 164 142 137 130 116 116 120 127 133 149 140 139 153 144
195 193 187 202 211 216 224 221 234 254 249 240 174 181 243 255 245 222 247 255 220 212 190 182 186 191 182 167 166 177 165 154 148 133 127 122 121 130 127 142 141 143 138 132
194 183 193 202 222 208 178 233 237 258 248 256 267 269 45 14 334 200 199 194 197 203 224 223 203 188 196 181 176 178 181 179 171 159 149 140 146 140 132 132 142 146 141 142
192 174 183 195 209 214 203 245 190 99 67 92 222 304 97 31 352 352 111 44 109 212 216 216 203 188 207 201 183 187 190 186 183 170 161 164 158 150 139 140 148 142 151 151
188 185 199 209 211 210 222 220 196 178 203 212 264 281 246 143 215 232 193 139 33 43 183 173 242 206 190 197 214 192 196 193 194 184 179 176 184 173 164 170 172 168 168 171
200 188 246 242 222 221 214 227 212 251 193 254 214 278 252 242 236 244 206 196 223 249 179 173 217 210 212 210 213 202 207 203 195 198 189 187 192 198 200 193 188 197 204 191
181 200 215 225 218 216 221 210 206 227 245 315 235 229 276 286 245 239 232 191 180 184 204 181 203 227 238 225 216 220 203 210 204 200 199 197 203 209 214 218 215 214 223 226
189 191 197 222 234 213 217 226 232 219 206 230 264 269 267 302 297 308 244 196 188 192 203 187 211 226 240 235 201 219 236 213 205 205 205 202 205 204 212 221 229 225 235 233
186 193 190 181 218 230 224 216 229 232 211 210 252 284 298 302 289 318 298 237 194 201 209 225 218 220 224 233 233 230 226 218 214 207 211 206 209 213 216 222 237 232 225 234
188 163 180 187 201 201 224 195 210 234 231 219 242 260 276 273 295 310 325 318 202 210 236 236 241 235 222 235 244 239 225 210 219 222 214 213 214 214 219 223 227 238 240 239
201 203 215 215 177 200 184 184 202 197 221 231 237 254 270 277 289 275 281 281 252 220 219 231 234 231 229 221 240 247 288 216 212 217 223 225 226 230 228 230 233 232 240 245
212 222 226 231 231 224 191 196 195 187 182 222 249 250 253 256 239 241 256 263 267 215 205 223 234 236 237 231 237 241 254 244 208 217 212 229 232 228 230 239 238 242 242 241
203 216 230 229 231 222 206 195 189 188 188 229 227 230 242 244 245 261 263 261 244 198 219 213 233 232 231 234 244 236 244 218 202 214 231 232 240 220 237 243 248 247 246 244
211 208 221 220 214 189 211 192 192 195 211 228 226 225 234 243 252 255 249 241 315 158 179 213 232 244 234 236 235 231 234 244 248 244 245 236 227 226 230 235 245 249 252 249
211 222 225 217 227 213 213 223 200 188 221 219 220 226 228 232 240 248 248 252 241 267 209 223 216 224 241 246 247 239 222 221 224 221 221 232 235 233 232 244 247 246 246 249
253 232 226 222 225 218 223 231 238 213 212 221 223 226 229 226 234 249 256 269 274 273 259 226 224 228 234 240 237 239 235 228 221 224 224 228 232 242 241 242 248 257 253 251
224 239 245 235 227 233 231 234 235 243 254 242 230 232 238 238 243 255 266 278 279 268 258 239 229 220 226 228 235 241 245 233 233 229 225 228 233 240 244 246 246 256 247 244
282 260 253 227 225 228 228 236 230 235 242 246 252 248 246 250 258 257 260 264 261 244 232 227 228 233 235 241 247 247 244 233 231 237 238 239 241 246 252 252 257 256 255 268
262 259 266 259 249 238 231 224 235 235 237 249 248 257 249 250 253 252 253 256 244 231 271 245 250 259 255 248 247 248 248 242 240 238 244 241 247 252 252 255 258 266 264 265
277 287 279 266 260 252 248 248 253 250 244 240 245 244 246 245 259 260 264 268 264 265 263 262 246 252 252 252 252 249 249 249 250 249 247 245 250 255 258 257 258 260 272 275
303 307 304 280 261 249 240 243 250 249 251 258 249 257 244 236 255 271 276 275 267 252 249 248 247 246 247 249 250 248 247 249 250 251 252 256 255 256 256 258 262 266 271 272
312 310 312 290 275 265 242 230 238 246 253 260 264 245 256 254 259 264 269 274 283 268 258 258 254 248 245 247 250 250 251 251 252 253 255 255 258 260 262 262 258 265 266 265
318 323 338 323 287 284 229 229 228 215 238 244 241 242 243 259 270 274 270 273 277 283 268 262 263 264 259 254 255 252 253 256 255 256 256 257 257 257 257 258 259 260 262 263
Height
5857 5861 5867 5876 5882 5884 5890 5891 5893 5893 5896 5898 5901 5902 5902 5900 5900 5903 5906 5909 5910 5911 5912 5916 5917 5919 5921 5924 5923 5926 5927 5928 5930 5930 5931 5932 5933 5935 5938 5941 5944 5944 5939 5943
5851 5856 5866 5872 5878 5881 5886 5887 5889 5889 5888 5892 5897 5899 5899 5898 5898 5903 5905 5908 5909 5911 5913 5916 5917 5918 5921 5923 5924 5926 5928 5930 5931 5932 5932 5933 5935 5936 5939 5942 5945 5946 5945 5947
5847 5860 5865 5869 5873 5877 5881 5880 5882 5885 5888 5891 5891 5894 5897 5898 5900 5903 5904 5905 5909 5910 5914 5916 5918 5918 5920 5922 5925 5927 5928 5931 5933 5933 5935 5935 5936 5939 5940 5942 5945 5948 5949 5951
5845 5856 5859 5868 5871 5875 5875 5876 5879 5883 5884 5886 5884 5887 5894 5896 5897 5900 5901 5904 5907 5911 5914 5915 5918 5918 5919 5922 5925 5927 5929 5931 5934 5935 5936 5937 5939 5941 5943 5944 5945 5948 5950 5953
5844 5851 5855 5863 5867 5872 5872 5876 5879 5881 5881 5883 5882 5883 5890 5891 5894 5897 5901 5903 5906 5909 5911 5914 5915 5919 5920 5921 5924 5928 5930 5931 5934 5935 5938 5940 5941 5942 5944 5947 5948 5949 5949 5951
5842 5848 5855 5860 5866 5869 5871 5873 5876 5879 5880 5884 5889 5874 5889 5891 5895 5897 5899 5902 5904 5910 5911 5912 5915 5916 5918 5922 5923 5927 5930 5932 5933 5935 5939 5941 5944 5945 5945 5947 5951 5952 5952 5953
5838 5844 5852 5856 5858 5862 5869 5864 5872 5876 5877 5881 5881 5883 5887 5891 5893 5897 5899 5904 5905 5909 5909 5909 5911 5914 5919 5920 5922 5926 5929 5932 5934 5934 5937 5941 5944 5946 5947 5948 5951 5953 5954 5955
5838 5844 5846 5850 5856 5862 5866 5867 5873 5873 5877 5881 5880 5882 5876 5884 5888 5892 5896 5901 5904 5906 5910 5909 5910 5915 5917 5918 5920 5924 5927 5930 5932 5934 5937 5940 5943 5945 5947 5949 5951 5954 5955 5957
5838 5842 5848 5850 5855 5860 5863 5866 5875 5874 5878 5880 5882 5883 5884 5885 5886 5889 5888 5893 5900 5905 5907 5909 5908 5909 5914 5916 5918 5920 5926 5929 5931 5933 5934 5938 5940 5944 5946 5949 5951 5952 5955 5956
5835 5839 5841 5846 5850 5856 5859 5865 5871 5872 5877 5879 5881 5881 5883 5883 5885 5887 5890 5887 5889 5898 5903 5906 5906 5907 5910 5913 5913 5918 5923 5926 5929 5931 5933 5934 5938 5941 5944 5946 5949 5952 5952 5954
5831 5834 5838 5843 5846 5851 5857 5862 5867 5871 5873 5877 5880 5881 5879 5878 5877 5883 5883 5885 5884 5891 5895 5902 5903 5905 5905 5910 5914 5916 5919 5923 5925 5928 5931 5932 5934 5939 5941 5944 5945 5949 5951 5953
5828 5832 5834 5839 5844 5846 5852 5858 5863 5867 5872 5874 5876 5878 5874 5876 5876 5879 5881 5883 5887 5892 5891 5895 5900 5902 5903 5907 5911 5913 5917 5921 5921 5924 5928 5929 5931 5934 5938 5941 5944 5945 5947 5949
5826 5828 5828 5833 5840 5844 5845 5852 5857 5862 5867 5870 5872 5873 5870 5872 5875 5875 5877 5881 5885 5889 5890 5892 5898 5901 5901 5903 5903 5906 5907 5911 5919 5919 5921 5923 5925 5927 5933 5936 5939 5942 5942 5946
5826 5824 5826 5828 5832 5837 5839 5844 5849 5855 5859 5866 5865 5867 5867 5867 5871 5873 5874 5880 5884 5882 5885 5885 5890 5896 5900 5899 5900 5901 5901 5905 5912 5913 5918 5921 5923 5925 5929 5932 5935 5938 5939 5941
5822 5823 5823 5827 5833 5835 5837 5839 5845 5850 5856 5857 5858 5858 5861 5861 5862 5867 5870 5874 5877 5868 5874 5880 5882 5885 5891 5894 5897 5898 5900 5903 5908 5904 5907 5915 5917 5920 5922 5927 5930 5932 5935 5936
5816 5819 5819 5827 5829 5830 5835 5837 5840 5843 5849 5847 5849 5851 5851 5854 5857 5859 5863 5868 5867 5849 5868 5876 5882 5883 5888 5888 5889 5894 5895 5901 5872 5894 5897 5907 5909 5911 5918 5921 5924 5927 5929 5931
5812 5811 5814 5824 5824 5825 5829 5829 5835 5840 5837 5836 5842 5848 5849 5853 5855 5856 5860 5860 5866 5858 5864 5873 5880 5882 5884 5885 5885 5887 5889 5893 5894 5899 5902 5902 5903 5905 5910 5914 5917 5920 5921 5923
5808 5809 5812 5818 5820 5823 5825 5829 5831 5830 5823 5833 5838 5839 5842 5846 5850 5852 5853 5854 5864 5864 5864 5867 5869 5874 5879 5881 5883 5885 5886 5888 5890 5893 5895 5896 5897 5902 5903 5908 5910 5912 5913 5915
5806 5806 5808 5811 5814 5818 5819 5822 5822 5822 5824 5827 5831 5833 5836 5842 5843 5844 5847 5849 5855 5856 5861 5864 5866 5868 5873 5876 5878 5880 5880 5884 5885 5886 5888 5890 5892 5895 5897 5901 5902 5902 5905 5906
5801 5802 5805 5806 5809 5811 5813 5816 5819 5818 5822 5823 5824 5832 5835 5838 5839 5842 5844 5843 5846 5850 5852 5857 5860 5862 5864 5866 5870 5874 5876 5878 5881 5883 5885 5887 5889 5891 5892 5893 5894 5896 5897 5897
5798 5801 5801 5801 5802 5801 5805 5807 5811 5815 5817 5816 5820 5825 5830 5831 5834 5836 5837 5837 5840 5844 5844 5846 5850 5853 5858 5860 5865 5869 5868 5870 5874 5877 5879 5880 5882 5884 5885 5885 5887 5887 5888 5888
5795 5795 5795 5796 5797 5796 5796 5798 5803 5808 5806 5808 5814 5815 5817 5818 5821 5824 5827 5829 5829 5836 5838 5842 5844 5847 5848 5853 5856 5859 5861 5864 5867 5868 5870 5872 5873 5875 5876 5877 5878 5878 5879 5881
5791 5790 5789 5787 5787 5787 5788 5791 5794 5797 5799 5800 5802 5805 5807 5813 5815 5817 5818 5819 5821 5823 5825 5829 5834 5837 5838 5841 5845 5847 5849 5853 5855 5857 5860 5862 5864 5865 5867 5867 5868 5868 5869 5872
5783 5782 5780 5777 5773 5776 5777 5784 5786 5786 5787 5792 5794 5797 5800 5803 5804 5805 5810 5812 5813 5814 5817 5820 5822 5826 5827 5830 5833 5835 5837 5839 5841 5844 5847 5850 5852 5854 5854 5856 5858 5860 5861 5861
5780 5777 5772 5765 5763 5763 5765 5771 5775 5777 5780 5783 5785 5794 5792 5796 5799 5799 5799 5803 5805 5808 5808 5809 5811 5814 5816 5819 5820 5824 5826 5827 5829 5831 5833 5837 5839 5840 5842 5844 5847 5848 5849 5850
5775 5771 5767 5759 5756 5752 5755 5760 5765 5775 5775 5775 5777 5782 5785 5787 5789 5792 5794 5795 5797 5799 5801 5801 5802 5804 5805 5807 5809 5812 5814 5815 5817 5819 5822 5824 5826 5827 5829 5831 5833 5835 5836 5838